Location: Capannuccia
(43.7000°N, 11.3000°E)
Time: 01:58:19
(UTC+00:00)

ARIANE 5 R/B - Pass Details

Date: 07 June 2020
Orbit: 748 x 796 km, 98.6° (Epoch: 05 July)

Event Time Altitude Azimuth Distance (km) Brightness Sun altitude
Rises 02:52:53 0° 5° (N) 3,219 6.5 -6.7°
Reaches altitude 10° 02:55:20 10° 357° (N) 2,285 5.5 -6.4°
Maximum altitude 02:59:53 36° 293° (WNW) 1,186 3.3 -5.7°
Drops below altitude 10° 03:04:22 10° 228° (SW) 2,262 4.3 -5.1°
Enters shadow 03:05:23 - 223° (SW) 2,639 4.6 -5.0°
